Overview Statistics Trail Chart Weather Telemetry Raw packets
 

This is the latest recevied weather packets stored in our database for station/object LU4EGV-13. If no packets are shown the sender has not sent any weather packets the latest 10 day(s).

<< 20 21 22 23 24 25 26 >>
Time Temp. Humidity Pressure Rain* Wind** Luminosity Snow
1788374536 24.44° C 43% 1006.7 hPa 0 mm - - -
1788373929 25° C 43% 1006.4 hPa 0 mm - - -
1788373323 24.44° C 44% 1006.6 hPa 0 mm - - -
1788372716 25° C 41% 1007 hPa 0 mm - - -
1788372110 25° C 42% 1007.2 hPa 0 mm - - -
1788371503 23.89° C 46% 1007.4 hPa 0 mm - - -
1788370900 23.33° C 46% 1007.5 hPa 0 mm - - -
1788370292 24.44° C 51% 1007.6 hPa 0 mm - - -
1788369686 23.89° C 51% 1007.8 hPa 0 mm - - -
1788369092 23.33° C 53% 1008.2 hPa 0 mm - - -
1788368483 22.78° C 54% 1008.5 hPa 0 mm - - -
1788367867 23.33° C 55% 1008.9 hPa 0 mm - - -
1788367262 21.67° C 58% 1009.1 hPa 0 mm - - -
1788366654 21.67° C 57% 1009.5 hPa 0 mm - - -
1788366050 21.67° C 60% 1010 hPa 0 mm - - -
1788365443 21.67° C 60% 1010 hPa 0 mm - - -
1788364836 21.67° C 60% 1010.1 hPa 0 mm - - -
1788364232 21.11° C 61% 1010.1 hPa 0 mm - - -
1788363636 20.56° C 61% 1010.6 hPa 0 mm - - -
1788363031 20.56° C 62% 1010.6 hPa 0 mm - - -
1788362412 20.56° C 59% 1011.1 hPa 0 mm - - -
1788361806 21.11° C 59% 1011.4 hPa 0 mm - - -
1788361199 20.56° C 61% 1011.7 hPa 0 mm - - -
1788360593 20.56° C 61% 1011.4 hPa 0 mm - - -
1788359987 20.56° C 61% 1011.6 hPa 0 mm - - -

* Rain latest hour (hover to see other rain measurements)
** Current wind speed in m/s (hover to see current wind gust speed)